Current Version              Previous Version:    01  02  03  04  05  06  07  08  09  10  11  12  13  14  15  16  17  18  19  20  21  22  23  24  25  26  27  28  29  30  
   31  32  33  34  35  36  37  38  39  40  41  42  43  44  45  46  47  48  49  50  51  52  53  54  55  56  57  58  59  60  

[Printable]
743
ASUS44 KFWD 171215
RWRTX
NORTH TEXAS HOURLY WEATHER ROUNDUP
NATIONAL WEATHER SERVICE FORT WORTH TX
700 AM CDT THU APR 17 2014

NOTE: "FAIR" INDICATES FEW OR NO CLOUDS BELOW 12,000 FEET WITH NO
SIGNIFICANT WEATHER AND/OR OBSTRUCTIONS TO VISIBILITY.

TXZ118-119-171300-
DALLAS/FORT WORTH METROPLEX

CITY           SKY/WX    TMP DP  RH WIND       PRES   REMARKS
DFW AIRPORT    MOCLDY    50  45  83 SE6       30.08R
6HR MIN TEMP:  49; 6HR MAX TEMP:  55;

DALLAS LOVE    MOCLDY    51  45  79 SE10      30.09R
6HR MIN TEMP:  51; 6HR MAX TEMP:  56;

FTW MEACHAM    PTCLDY    51  48  89 SE8       30.07R
6HR MIN TEMP:  51; 6HR MAX TEMP:  56;

DAL-EXECUTIVE  PTCLDY    49  45  86 SE6       30.08R
6HR MIN TEMP:  47; 6HR MAX TEMP:  54;

FTW-ALLIANCE   MOCLDY    48  46  93 SE6       30.08R
6HR MIN TEMP:  48; 6HR MAX TEMP:  54;

FTW-NAS-JRB    PTCLDY    54  45  71 E7        30.12R
6HR MIN TEMP:  53; 6HR MAX TEMP:  59;

FTW-SPINKS     PTCLDY    48  46  93 SE3       30.09R FOG
ARLINGTON      MOCLDY    52  48  86 SE5       30.08R
6HR MIN TEMP:  51; 6HR MAX TEMP:  54;

GRAND PRAIRIE  CLEAR     52  46  82 SE7       30.11R
ADDISON        PTCLDY    52  46  82 SE7       30.11R
MESQUITE       CLEAR     48  45  87 E6        30.10R
LANCASTER      PTCLDY    48  44  86 CALM      30.10R
6HR MIN TEMP:  47; 6HR MAX TEMP:  52;

$$

TXZ091>094-102>105-117-120-121-131>134-171300-
NORTH CENTRAL TEXAS

CITY           SKY/WX    TMP DP  RH WIND       PRES   REMARKS
SHRMAN/DENISON CLEAR     46  39  77 E9        30.11R
6HR MIN TEMP:  46; 6HR MAX TEMP:  50;

GAINESVILLE    CLEAR     44  41  88 SE6       30.11R
6HR MIN TEMP:  44; 6HR MAX TEMP:  51;

BOWIE          MOCLDY    49  45  86 SE6       30.07R
6HR MIN TEMP:  48; 6HR MAX TEMP:  53;

BRIDGEPORT     CLOUDY    52  46  81 S6        30.09R
6HR MIN TEMP:  47; 6HR MAX TEMP:  52;

DECATUR        CLOUDY    49  45  88 SE6       30.08R
6HR MIN TEMP:  47; 6HR MAX TEMP:  52;

DENTON         MOCLDY    50  46  86 SE7       30.08R
6HR MIN TEMP:  50; 6HR MAX TEMP:  54;

MCKINNEY       CLEAR     47  43  86 SE3       30.10R
6HR MIN TEMP:  46; 6HR MAX TEMP:  52;

GREENVILLE     CLEAR     46  41  81 E3        30.12R
ROCKWALL       MOCLDY    47  44  87 E6        30.09R
6HR MIN TEMP:  46; 6HR MAX TEMP:  51;

TERRELL        MOCLDY    48  46  93 VRB5      30.11R
6HR MIN TEMP:  48; 6HR MAX TEMP:  51;

WAXAHACHIE     MOCLDY    46  45  94 E5        30.10R
6HR MIN TEMP:  46; 6HR MAX TEMP:  52;

CLEBURNE       PTCLDY    50  48  93 E9        30.09R
GRANBURY       CLOUDY    55  49  82 SE9       30.08R
6HR MIN TEMP:  53; 6HR MAX TEMP:  56;

$$

TXZ083>090-098>101-113>116-127>130-139>142-154-155-171300-
WESTERN NORTH TEXAS

CITY           SKY/WX    TMP DP  RH WIND       PRES   REMARKS
WICHITA FALLS  MOCLDY    46  41  82 E6        30.05R
6HR MIN TEMP:  46; 6HR MAX TEMP:  53;

WF-KICKAPOO    PTCLDY    50  45  81 SE7       30.07R
6HR MIN TEMP:  50; 6HR MAX TEMP:  55;

VERNON         MOCLDY    48  41  76 E7        30.05R
6HR MIN TEMP:  46; 6HR MAX TEMP:  77;

ABILENE        CLOUDY    55  47  74 SE13      30.00R
6HR MIN TEMP:  53; 6HR MAX TEMP:  60;

ABILENE-DYESS  CLOUDY    54  47  77 E7        30.00R
6HR MIN TEMP:  53; 6HR MAX TEMP:  60;

BRECKENRIDGE   CLOUDY    55  47  75 SE10      30.04R
6HR MIN TEMP:  53; 6HR MAX TEMP:  60;

GRAHAM         CLEAR     51  47  86 SE8       30.04R
6HR MIN TEMP:  51; 6HR MAX TEMP:  56;

MINERAL WELLS  CLOUDY    53  49  86 SE10      30.06R
6HR MIN TEMP:  50; 6HR MAX TEMP:  55;

STEPHENVILLE   CLOUDY    53  49  87 E9        30.07R
6HR MIN TEMP:  50; 6HR MAX TEMP:  55;

COMANCHE       CLOUDY    53  50  90 SE13      30.01R
6HR MIN TEMP:  51; 6HR MAX TEMP:  56;

BROWNWOOD      CLOUDY    57  50  77 SE15      30.00R
COLEMAN        CLOUDY    56  48  76 E15       29.98R
6HR MIN TEMP:  53; 6HR MAX TEMP:  56;

BRADY          CLOUDY    57  52  82 SE9       29.95R
$$

TXZ143>147-156>162-174-175-171300-
CENTRAL TEXAS

CITY           SKY/WX    TMP DP  RH WIND       PRES   REMARKS
WACO           CLOUDY    54  51  90 E7        30.05R
6HR MIN TEMP:  52; 6HR MAX TEMP:  54;

WACO-TSTC      CLOUDY    55  52  88 E5        30.06
WACO-MCGREGOR  CLOUDY    54  46  76 SE9       30.06R
6HR MIN TEMP:  52; 6HR MAX TEMP:  54;

HILLSBORO      PTCLDY    49  46  88 E12       30.07R
6HR MIN TEMP:  49; 6HR MAX TEMP:  54;

CORSICANA      CLOUDY    52  48  86 E9        30.09R
6HR MIN TEMP:  52; 6HR MAX TEMP:  55;

MEXIA          CLOUDY    52  49  90 E5        30.07R
6HR MIN TEMP:  49; 6HR MAX TEMP:  52;

HEARNE         CLOUDY    54  51  90 E3        30.05S
6HR MIN TEMP:  54; 6HR MAX TEMP:  56;

CAMERON        CLOUDY    55  52  91 E7        30.04S
6HR MIN TEMP:  53; 6HR MAX TEMP:  57;

TEMPLE         CLOUDY    54  48  82 E6        30.07R
6HR MIN TEMP:  54; 6HR MAX TEMP:  55;

KILLEEN        CLOUDY    55  54  94 E10       30.02R
KILLEEN-SKYLRK CLOUDY    55  48  76 E8        30.02R
6HR MIN TEMP:  54; 6HR MAX TEMP:  55;

FORT HOOD      CLOUDY    57  52  83 SE3       30.04R
6HR MIN TEMP:  56; 6HR MAX TEMP:  58;

GATESVILLE     CLOUDY    55  52  88 E5        30.06R
HAMILTON       CLOUDY    55  54  95 SE8       30.03R
6HR MIN TEMP:  52; 6HR MAX TEMP:  55;

LAMPASAS       CLOUDY    55  53  91 E9        30.01R
6HR MIN TEMP:  55; 6HR MAX TEMP:  57;

$$

TXZ095>097-106>112-122>126-135>138-148>153-164>167-171300-
EAST TEXAS

CITY           SKY/WX    TMP DP  RH WIND       PRES   REMARKS
PARIS          CLEAR     43  36  75 E7        30.15R WCI  39
6HR MIN TEMP:  43; 6HR MAX TEMP:  46;

SULPHUR SPRNGS CLEAR     43  41  91 E5        30.15R
6HR MIN TEMP:  43; 6HR MAX TEMP:  48;

CLARKSVILLE    CLEAR     44  39  83 CALM      30.16R
6HR MIN TEMP:  43; 6HR MAX TEMP:  49;

MOUNT PLEASANT PTCLDY    42  40  93 CALM      30.16R
6HR MIN TEMP:  42; 6HR MAX TEMP:  47;

GILMER         MOCLDY    45  43  93 CALM      30.16R
MINEOLA        PTCLDY    43  43 100 CALM      30.14R
TYLER          CLOUDY    52  46  80 SE6       30.12R
6HR MIN TEMP:  49; 6HR MAX TEMP:  52;

LONGVIEW       CLOUDY    44  40  85 CALM      30.14R
6HR MIN TEMP:  42; 6HR MAX TEMP:  47;

MARSHALL       CLEAR     43  40  90 CALM      30.17R
6HR MIN TEMP:  40; 6HR MAX TEMP:  43;

ATHENS         CLOUDY    50  45  81 CALM      30.10R
PALESTINE      CLOUDY    53  47  80 E7        30.11S
JACKSONVILLE   CLOUDY    51  46  84 SE5       30.13R
HENDERSON      CLOUDY    47  45  90 CALM      30.14R
6HR MIN TEMP:  42; 6HR MAX TEMP:  47;

NACOGDOCHES    CLOUDY    50  45  81 E7        30.13R
6HR MIN TEMP:  43; 6HR MAX TEMP:  50;

LUFKIN         CLOUDY    54  48  80 E9        30.12R
6HR MIN TEMP:  50; 6HR MAX TEMP:  55;

$$

SUPPLEMENTAL OBSERVATIONS (CENTRAL)

CITY           SKY/WX    TMP DP  RH WIND       PRES   REMARKS
LAKE TEXOMA      N/A     45  41  87 E6          N/A
CADDO GRASSLND   N/A     46  39  76 S3          N/A
PAT MAYSE LAKE   N/A     39  36  87 NW2         N/A
ATHENS           N/A     48  45  87 NE2         N/A
PALESTINE        N/A     50  46  87 E5          N/A
LAKE LIMESTONE   N/A     54  50  87 E6          N/A
MCGREGOR         N/A     54  50  87 SE5         N/A